Location: Castelbiague
(43.0361°N, 0.9246°E)
Time: 15:24:26
(UTC+00:00)

Cosmos 1626 - Pass Details

Date: 23 October 2021
Orbit: 487 x 492 km, 82.5° (Epoch: 30 November)

Event Time Altitude Azimuth Distance (km) Brightness Sun altitude
Rises 05:36:40 0° 224° (SW) 2,562 5.4 -8.5°
Reaches altitude 10° 05:39:19 10° 245° (WSW) 1,687 4.3 -8.1°
Maximum altitude 05:41:51 17° 288° (WNW) 1,293 3.6 -7.6°
Drops below altitude 10° 05:44:24 10° 332° (NNW) 1,697 4.5 -7.1°
Sets 05:47:05 0° 352° (N) 2,585 5.6 -6.7°
